Chanute, KS

4:53 AM CST on February 22, 2017 (GMT -0600)
Chanute Martin Johnson

Weather History for KCNU - October, 2013

Change the Weather History Date:

Thursday, October 24, 2013

  Actual Average Record
Temperature  
Mean Temperature 43 °F 56 °F  
Max Temperature 53 °F 67 °F 92 °F (1927)
Min Temperature 33 °F 45 °F 24 °F (1999)
Degree Days  
Heating Degree Days 22 10  
Month to date heating degree days 194 164  
Since 1 July heating degree days 210 211  
Cooling Degree Days 0 0  
Month to date cooling degree days 37 31  
Year to date cooling degree days 1558 1528  
Moisture  
Dew Point 31 °F    
Average Humidity 60    
Maximum Humidity 85    
Minimum Humidity 35    
Precipitation  
Precipitation 0.00 in 0.09 in 1.02 in (1934)
Month to date precipitation 2.89 2.98  
Year to date precipitation 41.53 37.14  
Sea Level Pressure  
Sea Level Pressure 30.34 in    
Wind  
Wind Speed 7 mph (North)    
Max Wind Speed 17 mph    
Max Gust Speed 24 mph    
Visibility 10 miles    
Events Snow    
T = Trace of Precipitation, MM = Missing Value Source: NWS Daily Summary

Daily Weather History Graph

Daily Weather History Graph

Search for Another Location

Airport or City:

Trip Planner

Search our weather history database for the weather conditions in past years. The results will help you decide how hot, cold, wet, or windy it might be!

Date:

Astronomy

Oct. 24, 2013 Rise Set
Actual Time 7:39 AM CDT 6:32 PM CDT
Civil Twilight 7:12 AM CDT 6:59 PM CDT
Nautical Twilight 6:41 AM CDT 7:29 PM CDT
Astronomical Twilight 6:11 AM CDT 8:00 PM CDT
Moon 11:00 PM CDT (10/24) 12:38 PM CDT (10/24)
Length of Visible Light 11h 46m
Length of Day
10h 53m
Waning Gibbous, 71% of the Moon is Illuminated
Oct 24
Waning Gibbous
Oct 26
Last Quarter
Nov 3
New
Nov 9
First Quarter
Nov 17
Full

Hourly Weather History & Observations

Time (CDT) Temp. Windchill Dew Point Humidity Pressure Visibility Wind Dir Wind Speed Gust Speed Precip Events Conditions
12:52 AM 44.1 °F 39.0 °F 37.9 °F 79% 30.14 in 10.0 mi North 9.2 mph - N/A   Clear
1:52 AM 43.0 °F 37.2 °F 36.0 °F 76% 30.16 in 10.0 mi NNE 10.4 mph - N/A   Clear
2:52 AM 41.0 °F 36.4 °F 35.1 °F 79% 30.18 in 10.0 mi NNE 6.9 mph - N/A   Clear
3:52 AM 39.9 °F 33.9 °F 35.1 °F 83% 30.21 in 10.0 mi North 9.2 mph - N/A   Clear
4:52 AM 39.9 °F 33.9 °F 35.1 °F 83% 30.23 in 10.0 mi NNE 9.2 mph - N/A   Clear
5:52 AM 37.9 °F 35.5 °F 34.0 °F 86% 30.28 in 10.0 mi North 3.5 mph - N/A   Clear
6:52 AM 37.9 °F 35.5 °F 34.0 °F 86% 30.32 in 10.0 mi NW 3.5 mph - N/A   Clear
7:52 AM 37.9 °F 32.7 °F 35.1 °F 89% 30.32 in 9.0 mi North 6.9 mph - 0.00 in Snow Light Snow
8:52 AM 42.1 °F 37.7 °F 36.0 °F 79% 30.36 in 10.0 mi North 6.9 mph - 0.00 in   Clear
9:52 AM 46.0 °F 40.2 °F 35.1 °F 66% 30.39 in 10.0 mi North 12.7 mph 21.9 mph N/A   Scattered Clouds
10:52 AM 46.9 °F - 30.9 °F 54% 30.40 in 10.0 mi NNE 11.5 mph 19.6 mph N/A   Clear
11:52 AM 48.9 °F - 28.0 °F 44% 30.40 in 10.0 mi North 16.1 mph 23.0 mph N/A   Clear
12:52 PM 51.1 °F - 26.1 °F 38% 30.40 in 10.0 mi North 6.9 mph 19.6 mph N/A   Clear
1:52 PM 52.0 °F - 27.0 °F 38% 30.38 in 10.0 mi NNE 11.5 mph 16.1 mph N/A   Clear
2:52 PM 53.1 °F - 27.0 °F 37% 30.36 in 10.0 mi North 12.7 mph 24.2 mph N/A   Clear
3:52 PM 53.1 °F - 26.1 °F 35% 30.36 in 10.0 mi NNE 11.5 mph - N/A   Clear
4:52 PM 52.0 °F - 27.0 °F 38% 30.37 in 10.0 mi NNW 5.8 mph - N/A   Clear
5:52 PM 50.0 °F - 26.1 °F 39% 30.38 in 10.0 mi North 6.9 mph - N/A   Clear
6:52 PM 46.0 °F 44.8 °F 28.0 °F 50% 30.38 in 10.0 mi North 3.5 mph - N/A   Clear
7:52 PM 44.1 °F 41.5 °F 27.0 °F 51% 30.40 in 10.0 mi NNE 4.6 mph - N/A   Clear
8:52 PM 37.9 °F - 28.9 °F 70% 30.42 in 10.0 mi Calm Calm - N/A   Clear
9:52 PM 37.0 °F - 28.9 °F 73% 30.43 in 10.0 mi Calm Calm - N/A   Clear
10:52 PM 37.0 °F 34.5 °F 30.0 °F 76% 30.45 in 10.0 mi NE 3.5 mph - N/A   Clear
11:52 PM 35.1 °F - 28.9 °F 78% 30.45 in 10.0 mi Calm Calm - N/A   Clear